EW5773 Weather Reports


Display with metric or nautical units.
time (UTC)temp
F
wind
direction
speed
MPH
gust
MPH
rain 1hr
in
rain 24hr
in
rain mn
in
humidity
%
barometer
mb
20260904151531 79 246 7.0 14.0 0.00 0.00 0.00 62 1017.0
20260904150016 79 255 11.0 19.0 0.00 0.00 0.00 62 1017.2
20260904144512 79 233 7.0 14.0 0.00 0.00 0.00 63 1017.1
20260904143013 79 232 9.0 20.0 0.00 0.00 0.00 62 1017.2
20260904141509 79 170 6.0 16.0 0.00 0.00 0.00 63 1017.2
20260904140022 78 271 9.0 17.0 0.00 0.00 0.00 63 1017.3
20260904134557 78 259 8.0 21.0 0.00 0.00 0.00 65 1017.3
20260904133107 78 244 8.0 18.0 0.00 0.00 0.00 64 1017.1
20260904131522 78 212 9.0 16.0 0.00 0.00 0.00 64 1017.3
20260904130019 78 236 6.0 19.0 0.00 0.00 0.00 65 1017.4
20260904124542 77 285 4.0 12.0 0.00 0.00 0.00 67 1017.4
20260904123015 76 221 11.0 20.0 0.00 0.00 0.00 68 1017.4
20260904121513 76 245 5.0 14.0 0.00 0.00 0.00 68 1017.5
20260904120112 75 200 6.0 16.0 0.00 0.00 0.00 68 1017.5
20260904114509 73 269 6.0 16.0 0.00 0.00 0.00 71 1017.6
20260904113028 73 248 7.0 18.0 0.00 0.00 0.00 73 1017.8
20260904111519 74 245 6.0 12.0 0.00 0.00 0.00 74 1017.5
20260904110005 72 222 7.0 17.0 0.00 0.00 0.00 75 1017.6
20260904104506 73 272 6.0 18.0 0.00 0.00 0.00 76 1017.5
20260904103005 73 236 12.0 17.0 0.00 0.00 0.00 76 1017.6
20260904101504 73 225 7.0 14.0 0.00 0.00 0.00 75 1017.6
20260904100004 75 231 7.0 11.0 0.00 0.00 0.00 74 1017.5
20260904094604 75 229 5.0 11.0 0.00 0.00 0.00 74 1017.5
20260904093100 75 225 4.0 10.0 0.00 0.00 0.00 74 1017.6
20260904091557 74 211 4.0 10.0 0.00 0.00 0.00 76 1017.6
20260904090055 73 210 6.0 11.0 0.00 0.00 0.00 77 1017.6
20260904084525 72 223 2.0 9.0 0.00 0.00 0.00 80 1017.5
20260904083049 70 242 4.0 9.0 0.00 0.00 0.00 83 1017.6
20260904081517 69 207 3.0 9.0 0.00 0.00 0.00 85 1017.6
20260904080050 68 217 5.0 10.0 0.00 0.00 0.00 87 1017.5
20260904074524 67 221 5.0 11.0 0.00 0.00 0.00 89 1017.7
20260904073013 66 261 4.0 10.0 0.00 0.00 0.00 91 1017.9
20260904071509 65 204 5.0 10.0 0.00 0.00 0.00 92 1017.8
20260904070009 64 205 5.0 10.0 0.00 0.00 0.00 93 1017.8
20260904064507 64 261 3.0 7.0 0.00 0.00 0.00 93 1017.7
20260904063013 63 193 3.0 6.0 0.00 0.00 0.00 93 1017.8
20260904061516 63 225 3.0 8.0 0.00 0.00 0.00 94 1017.9
20260904060008 62 209 2.0 5.0 0.00 0.00 0.00 93 1017.8
20260904054509 62 206 0.0 5.0 0.00 0.00 0.00 93 1017.7
20260904053005 62 205 1.0 3.0 0.00 0.00 0.00 93 1017.8
20260904051513 62 205 1.0 3.0 0.00 0.00 0.00 93 1018.0
20260904050004 62 204 1.0 3.0 0.00 0.00 0.00 92 1018.4
20260904044505 62 205 0.0 4.0 0.00 0.00 0.00 92 1018.3
20260904043008 62 204 2.0 4.0 0.00 0.00 0.00 91 1018.2
20260904041503 62 204 2.0 4.0 0.00 0.00 0.00 91 1018.2
20260904040006 63 204 1.0 3.0 0.00 0.00 0.00 91 1018.1
20260904034505 63 204 1.0 5.0 0.00 0.00 0.00 90 1018.1
20260904033002 63 200 1.0 4.0 0.00 0.00 0.00 89 1017.9
20260904031604 64 200 1.0 3.0 0.00 0.00 0.00 89 1017.8
20260904030019 64 200 0.0 2.0 0.00 0.00 0.00 89 1017.8
20260904024519 64 200 1.0 2.0 0.00 0.00 0.00 89 1017.9
20260904023018 64 200 1.0 4.0 0.00 0.00 0.00 88 1017.9
20260904021517 65 202 2.0 4.0 0.00 0.00 0.00 88 1018.0
20260904020014 65 206 2.0 4.0 0.00 0.00 0.00 88 1018.3
20260904014514 65 211 2.0 4.0 0.00 0.00 0.00 88 1018.5
20260904013014 65 213 2.0 3.0 0.00 0.00 0.00 87 1018.7
20260904011515 65 213 1.0 3.0 0.00 0.00 0.00 87 1019.0
20260904010111 66 213 0.0 3.0 0.00 0.00 0.00 86 1019.1
20260904004510 66 213 2.0 4.0 0.00 0.00 0.00 86 1019.3
20260904003008 67 213 2.0 5.0 0.00 0.00 0.00 85 1019.6
20260904001507 67 216 2.0 5.0 0.00 0.00 0.00 84 1019.8
20260904000006 67 221 2.0 7.0 0.00 0.00 0.00 83 1019.8
20260903234503 68 227 2.0 5.0 0.00 0.00 0.00 83 1019.7
20260903233007 68 228 2.0 6.0 0.00 0.00 0.00 82 1019.7
20260903231504 69 229 2.0 4.0 0.00 0.00 0.00 81 1019.7
20260903230013 69 230 1.0 5.0 0.00 0.00 0.00 80 1019.6
20260903224519 70 228 1.0 4.0 0.00 0.00 0.00 79 1019.9
20260903223105 70 226 0.0 4.0 0.00 0.00 0.00 79 1019.9
20260903221552 70 222 3.0 7.0 0.00 0.00 0.00 78 1020.0
20260903220104 71 223 2.0 5.0 0.00 0.00 0.00 78 1020.1
20260903214553 71 215 2.0 6.0 0.00 0.00 0.00 78 1020.2
20260903213046 70 206 1.0 5.0 0.00 0.00 0.00 78 1020.2
20260903211547 71 204 1.0 4.0 0.00 0.00 0.00 78 1020.3
20260903210045 71 204 2.0 5.0 0.00 0.00 0.00 77 1020.4
20260903204546 72 204 1.0 4.0 0.00 0.00 0.00 76 1020.4
20260903203023 72 203 1.0 5.0 0.00 0.00 0.00 75 1020.5
20260903201517 73 205 2.0 6.0 0.00 0.00 0.00 74 1020.6
20260903200033 73 205 2.0 5.0 0.00 0.00 0.00 73 1020.5
20260903194532 74 209 1.0 6.0 0.00 0.00 0.00 72 1020.6
20260903193009 75 211 1.0 4.0 0.00 0.00 0.00 71 1020.8
20260903191510 75 210 1.0 4.0 0.00 0.00 0.00 70 1020.6
20260903190009 76 211 2.0 4.0 0.00 0.00 0.00 69 1020.6
20260903184506 77 211 3.0 6.0 0.00 0.00 0.00 67 1020.6
20260903183009 77 213 2.0 7.0 0.00 0.00 0.00 66 1020.5
20260903181503 78 214 2.0 7.0 0.00 0.00 0.00 64 1020.5
20260903180004 79 223 3.0 8.0 0.00 0.00 0.00 63 1020.6
20260903174502 79 219 5.0 10.0 0.00 0.00 0.00 63 1020.8
20260903173111 79 232 3.0 13.0 0.00 0.00 0.00 62 1020.8
20260903171606 80 250 7.0 12.0 0.00 0.00 0.00 62 1020.8
20260903164559 80 221 4.0 10.0 0.00 0.00 0.00 62 1020.9
20260903163057 80 251 4.0 14.0 0.00 0.00 0.00 62 1020.9
20260903161611 80 248 4.0 11.0 0.00 0.00 0.00 62 1020.9
20260903160049 80 188 6.0 14.0 0.00 0.00 0.00 62 1020.9
20260903154517 80 236 3.0 10.0 0.00 0.00 0.00 62 1020.8
20260903153019 81 213 5.0 11.0 0.00 0.00 0.00 61 1020.9